Natchitoches, LA

4:57 AM CST on November 15, 2019 (GMT -0600)
Natchitoches Regional

Weather History for KIER - September, 2019

Change the Weather History Date:

Monday, September 2, 2019

  Actual Average Record
Temperature  
Mean Temperature 82 °F -  
Max Temperature 96 °F 92 °F 105 °F (2000)
Min Temperature 68 °F 69 °F 48 °F (1954)
Cooling Degree Days 17    
Growing Degree Days 32 (Base 50)    
Moisture  
Dew Point 70 °F    
Average Humidity 70    
Maximum Humidity 99    
Minimum Humidity 40    
Precipitation  
Precipitation 0.00 in - - ()
Sea Level Pressure  
Sea Level Pressure 30.01 in    
Wind  
Wind Speed 2 mph (ENE)    
Max Wind Speed 10 mph    
Max Gust Speed 17 mph    
Visibility 10 miles    
Events      
Averages and records for this station are not official NWS values.
T = Trace of Precipitation, MM = Missing Value Source: NWS Daily Summary

Daily Weather History Graph

Daily Weather History Graph

Search for Another Location

Airport or City:

Astronomy

Sep. 02, 2019 Rise Set
Actual Time 6:48 AM CDT 7:35 PM CDT
Civil Twilight 6:23 AM CDT 8:00 PM CDT
Nautical Twilight 5:54 AM CDT 8:29 PM CDT
Astronomical Twilight 5:24 AM CDT 8:59 PM CDT
Moon 10:19 AM CDT (9/2) 10:11 PM CDT (9/2)
Length of Visible Light 13h 36m
Length of Day
12h 46m
Waxing Crescent, 15% of the Moon is Illuminated
Sep 2
Waxing Crescent
Sep 5
First Quarter
Sep 13
Full
Sep 21
Last Quarter
Sep 28
New

Hourly Weather History & Observations

Time (CDT) Temp. Heat Index Dew Point Humidity Pressure Visibility Wind Dir Wind Speed Gust Speed Precip Events Conditions
12:15 AM 71.8 °F - 69.8 °F 93% 30.02 in 10.0 mi Calm Calm - N/A   Clear
12:35 AM 71.6 °F - 69.8 °F 94% 30.02 in 10.0 mi Calm Calm - N/A   Clear
12:55 AM 71.1 °F - 69.8 °F 96% 30.02 in 10.0 mi Calm Calm - N/A   Clear
1:15 AM 70.9 °F - 69.8 °F 96% 30.02 in 10.0 mi Calm Calm - N/A   Clear
1:35 AM 70.7 °F - 69.8 °F 97% 30.02 in 10.0 mi Calm Calm - N/A   Clear
1:55 AM 70.7 °F - 69.8 °F 97% 30.02 in 10.0 mi Calm Calm - N/A   Clear
2:15 AM 70.2 °F - 69.3 °F 97% 30.02 in 10.0 mi Calm Calm - N/A   Clear
2:35 AM 70.2 °F - 69.6 °F 98% 30.02 in 10.0 mi Calm Calm - N/A   Clear
2:55 AM 70.0 °F - 68.9 °F 96% 30.02 in 10.0 mi Calm Calm - N/A   Clear
3:15 AM 69.8 °F - 68.9 °F 97% 30.01 in 10.0 mi Calm Calm - N/A   Clear
3:35 AM 69.4 °F - 68.9 °F 98% 30.01 in 10.0 mi Calm Calm - N/A   Clear
3:55 AM 69.8 °F - 69.3 °F 98% 30.01 in 10.0 mi Calm Calm - N/A   Clear
4:15 AM 69.8 °F - 69.3 °F 98% 30.01 in 10.0 mi Calm Calm - N/A   Clear
4:55 AM 69.6 °F - 69.1 °F 98% 30.02 in 10.0 mi Calm Calm - N/A   Clear
5:15 AM 69.3 °F - 68.9 °F 99% 30.02 in 7.0 mi Calm Calm - N/A   Clear
5:35 AM 68.9 °F - 68.5 °F 99% 30.02 in 5.0 mi WNW 3.5 mph - N/A   Clear
5:55 AM 69.4 °F - 69.1 °F 99% 30.02 in 7.0 mi Calm Calm - N/A   Clear
6:15 AM 69.1 °F - 68.7 °F 99% 30.02 in 10.0 mi Calm Calm - N/A   Clear
6:35 AM 68.7 °F - 68.4 °F 99% 30.03 in 7.0 mi Calm Calm - N/A   Clear
7:15 AM 68.5 °F - 68.4 °F 99% 30.04 in 7.0 mi Calm Calm - N/A   Clear
7:35 AM 69.8 °F - 69.3 °F 98% 30.05 in 10.0 mi Calm Calm - N/A   Clear
7:55 AM 72.1 °F - 71.1 °F 96% 30.05 in 10.0 mi Calm Calm - N/A   Clear
8:15 AM 76.1 °F - 71.8 °F 86% 30.06 in 10.0 mi Calm Calm - N/A   Clear
8:55 AM 79.9 °F - 69.8 °F 71% 30.06 in 10.0 mi Calm Calm - N/A   Clear
9:15 AM 83.5 °F 88.2 °F 70.9 °F 66% 30.06 in 10.0 mi NE 3.5 mph - N/A   Clear
9:35 AM 84.6 °F 90.3 °F 72.0 °F 66% 30.06 in 10.0 mi East 4.6 mph - N/A   Clear
9:55 AM 86.5 °F 93.3 °F 72.7 °F 63% 30.06 in 10.0 mi ENE 4.6 mph - N/A   Clear
10:15 AM 88.2 °F 95.5 °F 72.9 °F 60% 30.07 in 10.0 mi East 5.8 mph - N/A   Clear
10:35 AM 88.7 °F 96.2 °F 72.9 °F 59% 30.06 in 10.0 mi ESE 6.9 mph - N/A   Clear
10:55 AM 89.2 °F 96.9 °F 72.7 °F 58% 30.06 in 10.0 mi East 9.2 mph - N/A   Clear
11:15 AM 90.0 °F 97.4 °F 72.5 °F 56% 30.06 in 10.0 mi NE 9.2 mph - N/A   Clear
11:35 AM 90.5 °F 96.5 °F 70.9 °F 52% 30.06 in 10.0 mi East 8.1 mph - N/A   Scattered Clouds
11:55 AM 91.4 °F 97.8 °F 71.2 °F 51% 30.06 in 10.0 mi East 9.2 mph 16.1 mph N/A   Scattered Clouds
12:15 PM 90.0 °F 95.4 °F 70.2 °F 52% 30.05 in 10.0 mi ENE 8.1 mph - N/A   Scattered Clouds
12:35 PM 91.4 °F 97.3 °F 70.5 °F 50% 30.05 in 10.0 mi ENE 6.9 mph - N/A   Scattered Clouds
12:55 PM 92.3 °F 99.2 °F 71.2 °F 50% 30.04 in 10.0 mi NE 9.2 mph 17.3 mph N/A   Mostly Cloudy
1:15 PM 93.2 °F 99.9 °F 71.1 °F 48% 30.03 in 10.0 mi NE 8.1 mph - N/A   Scattered Clouds
1:35 PM 93.0 °F 97.9 °F 68.9 °F 45% 30.03 in 10.0 mi NE 10.4 mph - N/A   Clear
2:15 PM 92.3 °F 96.5 °F 68.4 °F 45% 30.01 in 10.0 mi Calm Calm - N/A   Scattered Clouds
2:35 PM 93.9 °F 99.1 °F 68.9 °F 44% 30.00 in 10.0 mi ENE 4.6 mph - N/A   Scattered Clouds
2:55 PM 94.8 °F 100.9 °F 70.0 °F 44% 29.99 in 10.0 mi NNE 10.4 mph - N/A   Clear
3:15 PM 95.2 °F 101.7 °F 70.2 °F 44% 29.98 in 10.0 mi NE 10.4 mph - N/A   Clear
3:35 PM 95.0 °F 101.3 °F 69.8 °F 44% 29.98 in 10.0 mi NNE 10.4 mph - N/A   Clear
3:55 PM 95.4 °F 100.8 °F 69.1 °F 42% 29.97 in 10.0 mi NE 8.1 mph 16.1 mph N/A   Clear
4:15 PM 95.7 °F 101.5 °F 69.4 °F 42% 29.97 in 10.0 mi NE 8.1 mph - N/A   Clear
4:35 PM 96.1 °F 102.9 °F 70.2 °F 43% 29.96 in 10.0 mi ENE 6.9 mph - N/A   Scattered Clouds
4:55 PM 95.7 °F 100.9 °F 68.5 °F 41% 29.96 in 10.0 mi NE 6.9 mph - N/A   Scattered Clouds
5:15 PM 95.9 °F 100.7 °F 68.4 °F 40% 29.96 in 10.0 mi East 8.1 mph - N/A   Clear
5:35 PM 95.5 °F 101.2 °F 68.9 °F 42% 29.96 in 10.0 mi NE 6.9 mph - N/A   Clear
5:55 PM 95.7 °F 100.9 °F 68.7 °F 41% 29.96 in 10.0 mi NE 6.9 mph - N/A   Scattered Clouds
6:15 PM 94.8 °F 99.8 °F 68.5 °F 42% 29.95 in 10.0 mi ENE 9.2 mph - N/A   Scattered Clouds
6:35 PM 93.7 °F 98.8 °F 68.7 °F 44% 29.95 in 10.0 mi East 5.8 mph - N/A   Clear
6:55 PM 92.8 °F 98.6 °F 69.6 °F 47% 29.95 in 10.0 mi East 4.6 mph - N/A   Clear
7:15 PM 91.4 °F 96.8 °F 69.8 °F 49% 29.95 in 10.0 mi ENE 4.6 mph - N/A   Scattered Clouds
7:35 PM 89.1 °F 94.6 °F 70.5 °F 54% 29.95 in 10.0 mi Calm Calm - N/A   Scattered Clouds
7:55 PM 87.8 °F 93.0 °F 70.3 °F 56% 29.95 in 10.0 mi Calm Calm - N/A   Mostly Cloudy
8:15 PM 87.1 °F 92.0 °F 70.0 °F 57% 29.96 in 10.0 mi NE 3.5 mph - N/A   Mostly Cloudy
8:35 PM 86.0 °F 90.1 °F 69.3 °F 57% 29.96 in 10.0 mi Calm Calm - N/A   Scattered Clouds
8:55 PM 85.1 °F 89.4 °F 69.6 °F 60% 29.96 in 10.0 mi Calm Calm - N/A   Clear
9:15 PM 80.6 °F 84.4 °F 71.4 °F 73% 29.96 in 10.0 mi Calm Calm - N/A   Clear
9:35 PM 78.3 °F - 71.6 °F 80% 29.97 in 10.0 mi Calm Calm - N/A   Clear
9:55 PM 76.6 °F - 72.0 °F 85% 29.97 in 10.0 mi Calm Calm - N/A   Clear
10:15 PM 76.1 °F - 72.0 °F 87% 29.98 in 10.0 mi Calm Calm - N/A   Clear
10:55 PM 76.6 °F - 70.5 °F 81% 29.98 in 10.0 mi NE 4.6 mph - N/A   Clear
11:15 PM 77.2 °F - 70.3 °F 79% 29.98 in 10.0 mi Calm Calm - N/A   Clear
11:55 PM 73.8 °F - 71.1 °F 91% 29.98 in 10.0 mi Calm Calm - N/A   Clear